Torna al catalogo

TITAN 3C TRANSTAGE DEB

AttivoMEO
NORAD 30000·DEBRIS·🇺🇸 United States

Lanciato Sep 26, 1968 da Cape Canaveral Space Force Station

Loading…

Prossimi Passaggi (prossime 24 ore)

TLE

AggiornatoSource: Space-Track

Epoca: Sep 14, 2026, 11:50 UTC

1 30000U 68081J   26257.49332190 -.00000349  00000-0  00000-0 0  9996
2 30000   2.0824  46.0940 0105799 318.5334 112.1130  1.00909227 80144

Traccia TITAN 3C TRANSTAGE DEB in tempo reale con AllMySat

Download on the App Store